Location: Unspecified
(0.0000°N, 0.0000°E)
Time: 08:49:54
(UTC+00:00)

N. Korean satellite - Pass Details

Date: 25 November 2022
Orbit: 421 x 454 km, 97.3° (Epoch: 29 November)

Event Time Altitude Azimuth Distance (km) Brightness Sun altitude
Rises 04:50:36 0° 12° (NNE) 2,442 10.0 -13.1°
Reaches altitude 10° 04:52:38 10° 14° (NNE) 1,570 9.1 -12.7°
Maximum altitude 04:56:00 80° 101° (ESE) 456 6.5 -11.9°
Drops below altitude 10° 04:59:20 10° 188° (S) 1,563 9.3 -11.1°
Sets 05:01:21 0° 189° (S) 2,429 10.3 -10.6°
